Terug naar catalogus

STARLINK-2746

ActiefCommunicatieVLEO
NORAD 48676·PAYLOAD·🇺🇸 United States

Gelanceerd May 26, 2021 vanaf Cape Canaveral Space Force Station

Loading…

Volgende Passages (komende 24 uur)

TLE

VersSource: CelesTrak SupGP

Epoch: Sep 14, 2026, 21:29 UTC

1 48676C 21044AQ  26257.89562500 -.00011866  00000+0 -38148-3 0  2576
2 48676  53.1584 314.8911 0001017  93.1272 207.2217 15.31716140    10

Volg STARLINK-2746 in realtime met AllMySat

Download on the App Store